Location: Newark
(36.7000°N, 45.1333°E)
Time: 06:39:36
(UTC+00:00)

LightSail 2 - Pass Details

Date: 19 January 2020
Orbit: 697 x 724 km, 24.0° (Epoch: 27 February)

Event Time Altitude Azimuth Distance (km) Brightness Sun altitude
Rises 16:12:34 0° 234° (SW) 3,092 9.4 -24.2°
Reaches altitude 10° 16:15:40 10° 216° (SW) 2,180 8.2 -24.8°
Maximum altitude 16:19:08 18° 173° (S) 1,698 7.1 -25.5°
Enters shadow 16:19:29 18° 168° (SSE) 1,705 7.0 -25.6°
